[[{"header":{"parameterUnit":"m.s-1","parameterCategory":1,"la1":30.2991,"la2":30.254,"lo1":-89.0895,"lo2":-89.0444,"dy":0.0017,"dx":0.0017,"nx":28,"ny":28,"refTime":"2025-11-10T03:00:00:Z","depth":0,"parameterNumber":2,"parameterNumberName":"U-component_of_WINDS"},"data":[0,0,0,0,0,0,0,0,0,0,0,0,0,0,0,0,0,0,0,0,0,0,0,0,0,0,0,0,0,0,0,0,0,0,0,0,0,0,0,0,0,0,0,0,0,0,0,0,0,0,0,0,0,0,0,0,0,0,3.4555,3.4555,0,3.4597,3.4597,3.4598,3.4546,3.4544,3.4542,3.4541,3.458,3.4583,3.4586,0,0,0,0,0,0,0,0,0,0,0,0,0,3.443,3.4432,3.4555,3.4556,3.4556,3.4597,3.4597,3.4598,3.4546,3.4544,3.4542,3.454,3.4579,3.4583,3.4586,0,0,0,0,0,0,0,0,0,0,0,0,0,3.4479,3.4433,3.4555,3.4535,3.4534,3.4596,3.4597,3.4598,3.4547,3.4544,3.4541,3.4539,3.4578,3.4582,3.4587,3.4669,0,0,3.46,3.4601,0,0,0,0,0,0,0,0,3.4476,3.4484,3.4538,3.4537,3.4536,3.4563,3.4568,3.4622,3.4548,3.4542,3.4541,3.4537,3.4577,3.4581,3.4595,3.4671,3.4673,3.46,3.4602,3.4604,3.4606,0,0,0,0,0,0,0,3.4473,3.4482,3.4571,3.4539,3.4537,3.4524,3.4528,3.4578,3.4575,3.4542,3.4539,3.4544,3.4576,3.4591,3.4595,3.4673,3.46,3.4604,3.4606,3.4608,3.482,3.4823,0,0,0,0,0,0,3.4472,3.4479,3.457,3.4573,3.4498,3.4529,3.4533,3.4557,3.4574,3.4574,3.4547,3.4542,3.4585,3.4591,3.4597,3.4695,3.4604,3.4608,3.4611,3.4817,3.4821,3.4825,0,0,0,0,0,0,3.447,3.4481,3.4568,3.4525,3.4535,3.4534,3.4561,3.456,3.4575,3.4577,3.4576,3.4563,3.4583,3.4591,3.4652,3.4695,3.461,3.4614,3.4814,3.4819,3.4823,3.4891,0,0,0,0,0,0,3.4466,3.448,3.4512,3.4526,3.4538,3.4623,3.4564,3.4562,3.4582,3.4576,3.4592,3.4592,3.4581,3.4646,3.4656,3.47,3.4617,3.481,3.4816,3.4821,3.4885,3.4898,3.4909,0,0,0,0,0,3.4462,3.4528,3.4513,3.4525,3.4577,3.4626,3.4633,3.4619,3.4586,3.4618,3.462,3.4592,3.469,3.4653,3.4664,3.4709,3.4807,3.4814,3.4821,3.488,3.4895,3.4908,0,0,0,0,0,0,3.4517,3.453,3.4513,3.4587,3.4606,3.4617,3.4656,3.4636,3.4664,3.4657,3.4639,3.4643,3.4709,3.4715,3.4674,3.479,3.4743,3.4752,3.4784,3.4798,3.481,3.4806,3.4621,0,0,0,0,0,3.4539,3.4578,3.4586,3.465,3.4661,3.4658,3.4678,3.4667,3.4686,3.4693,3.4699,3.4718,3.4753,3.4776,3.4808,3.4887,3.4889,3.4923,3.4935,3.4945,3.4953,3.4995,3.501,3.4848,3.4848,3.4847,0,0,3.4582,3.4593,3.4619,3.4662,3.4675,3.4716,3.4664,3.4709,3.4739,3.4699,3.4758,3.4764,3.4783,3.4854,3.4885,3.4861,3.4999,3.4954,3.4961,3.4964,3.5004,3.5019,3.5033,3.4852,3.4851,3.4851,0,0,3.4681,3.4694,3.4749,3.4764,3.4786,3.4784,3.4797,3.4813,3.4815,3.4874,3.4845,3.4881,3.4941,3.4957,3.4972,3.5081,3.5056,3.5092,3.5152,3.5194,3.5207,3.5218,3.5256,3.527,3.51,3.51,3.5101,0,3.4731,3.4792,3.478,3.4827,3.4847,3.4815,3.487,3.4885,3.4916,3.4931,3.4904,3.498,3.4991,3.5065,3.5092,3.5106,3.512,3.5089,3.5206,3.5217,3.5227,3.5264,3.5278,3.5105,3.5104,3.5104,3.5103,0,3.4854,3.4897,3.4938,3.4971,3.4995,3.5046,3.5041,3.5067,3.5055,3.5055,3.5116,3.5129,3.5163,3.518,3.5168,3.5253,3.5237,3.5209,3.516,3.5247,3.5281,3.5295,3.5111,3.5109,3.5108,3.5107,0,0,3.4986,3.5013,3.5028,3.5043,3.5066,3.5099,3.5149,3.5184,3.5207,3.5231,3.5272,3.5325,3.53,3.5318,3.5307,3.5344,3.5429,3.531,3.5311,3.5331,3.5523,3.5544,3.556,3.5414,3.5416,3.5418,3.5522,0,3.5086,3.5174,3.5165,3.5248,3.5287,3.5259,3.5303,3.5322,3.5324,3.5358,3.536,3.5398,3.5362,3.5372,3.5408,3.5411,3.5467,3.5404,3.5451,3.5453,3.5446,3.5578,3.5599,3.5696,3.5535,3.5537,3.5539,0,3.5213,3.5242,3.533,3.5348,3.5364,3.5404,3.5436,3.5469,3.549,3.549,3.5512,3.5495,3.5545,3.5497,3.5567,3.5524,3.5543,3.5548,3.5551,3.5554,3.55,3.5583,3.5727,3.5741,3.5559,3.5558,3.5556,0,3.53,3.5362,3.5422,3.5436,3.5459,3.5488,3.5499,3.5517,3.5539,3.5568,3.5582,3.5616,3.5634,3.566,3.5653,3.5619,3.5724,3.5675,3.5724,3.5725,3.5746,3.5744,3.5894,3.5761,3.5761,3.576,3.576,0,3.5411,3.5466,3.5462,3.5499,3.556,3.555,3.561,3.5617,3.5634,3.5672,3.565,3.5686,3.5675,3.571,3.5705,3.5764,3.5772,3.5772,3.577,3.5774,3.5774,3.5785,3.5777,3.5764,3.5763,3.5763,3.5762,0,3.5518,3.5518,3.5582,3.56,3.5606,3.565,3.5664,3.5699,3.5701,3.575,3.576,3.5763,3.5804,3.58,3.5846,3.5842,3.5914,3.5904,3.5907,3.5905,3.5954,3.5949,3.6114,3.6135,3.599,3.5991,3.5992,0,3.5588,3.563,3.5653,3.5677,3.569,3.573,3.5753,3.5745,3.577,3.5799,3.583,3.587,3.59,3.5967,3.5972,3.6007,3.5998,3.6053,3.6002,3.6005,3.5998,3.5995,3.5999,3.6063,3.6064,3.6066,3.6067,0,3.5713,3.5711,3.5746,3.5782,3.581,3.5837,3.5862,3.5883,3.5878,3.5907,3.595,3.5974,3.6021,3.606,3.6094,3.6105,3.6085,3.6083,3.6096,3.6099,3.6099,3.6099,3.5933,3.6079,3.6078,3.6077,3.6076,3.6076,3.5803,3.5839,3.5861,3.5901,3.5919,3.5943,3.5978,3.5985,3.602,3.6059,3.6052,3.61,3.6121,3.6165,3.6179,3.6216,3.6195,3.6214,3.6219,3.6223,3.6229,3.6095,3.6222,3.6221,3.6221,3.6221,3.6221,0,3.5925,3.5939,3.5976,3.6012,3.6044,3.6025,3.6051,3.6079,3.6121,3.6144,3.6175,3.6224,3.6262,3.6272,3.6309,3.6337,3.6329,3.6347,3.6344,3.6346,3.6245,3.623,3.6353,3.6353,3.6353,3.6352,3.6352,3.6352,3.5992,3.6053,3.6054,3.6124,3.6136,3.6184,3.6201,3.6223,3.6241,3.6297,3.6329,3.6336,3.6354,3.6392,3.6426,3.6428,3.6442,3.6464,3.6462,3.6367,3.6353,3.6341,3.6326,3.6467,3.6467,3.656,3.6561,3.6562]},{"header":{"parameterUnit":"m.s-1","parameterCategory":1,"la1":30.2991,"la2":30.254,"lo1":-89.0895,"lo2":-89.0444,"dy":0.0017,"dx":0.0017,"nx":28,"ny":28,"refTime":"2025-11-10T03:00:00:Z","depth":0,"parameterNumber":3,"parameterNumberName":"V-component_of_WINDS"},"data":[0,0,0,0,0,0,0,0,0,0,0,0,0,0,0,0,0,0,0,0,0,0,0,0,0,0,0,0,0,0,0,0,0,0,0,0,0,0,0,0,0,0,0,0,0,0,0,0,0,0,0,0,0,0,0,0,0,0,-7.3005,-7.3007,0,-7.3214,-7.3217,-7.3219,-7.3155,-7.3151,-7.3146,-7.3142,-7.3354,-7.3363,-7.3373,0,0,0,0,0,0,0,0,0,0,0,0,0,-7.2547,-7.2556,-7.3005,-7.3007,-7.301,-7.3214,-7.3217,-7.322,-7.3156,-7.3151,-7.3145,-7.314,-7.3351,-7.3362,-7.3374,0,0,0,0,0,0,0,0,0,0,0,0,0,-7.275,-7.2558,-7.3004,-7.3003,-7.3005,-7.3213,-7.3217,-7.322,-7.3157,-7.315,-7.3144,-7.3138,-7.3347,-7.3361,-7.3376,-7.3598,0,0,-7.342,-7.3426,0,0,0,0,0,0,0,0,-7.2738,-7.2767,-7.3,-7.3003,-7.3006,-7.3152,-7.3133,-7.3347,-7.3159,-7.3099,-7.3142,-7.3134,-7.3292,-7.3311,-7.3364,-7.3607,-7.3616,-7.3421,-7.343,-7.3437,-7.3441,0,0,0,0,0,0,0,-7.2724,-7.2757,-7.3088,-7.3004,-7.3007,-7.2991,-7.3012,-7.3173,-7.323,-7.3104,-7.31,-7.3125,-7.3292,-7.335,-7.3369,-7.362,-7.3421,-7.3434,-7.3443,-7.3449,-7.4055,-7.4062,0,0,0,0,0,0,-7.2709,-7.2746,-7.3081,-7.3094,-7.2853,-7.3004,-7.3029,-7.3112,-7.3228,-7.3239,-7.3131,-7.3122,-7.3329,-7.3352,-7.3376,-7.3643,-7.3436,-7.345,-7.3458,-7.4047,-7.4056,-7.4064,0,0,0,0,0,0,-7.2699,-7.2739,-7.3072,-7.2919,-7.296,-7.3019,-7.3113,-7.3119,-7.3177,-7.3248,-7.3258,-7.318,-7.3324,-7.3355,-7.3543,-7.365,-7.3457,-7.347,-7.4039,-7.405,-7.406,-7.418,0,0,0,0,0,0,-7.2686,-7.2736,-7.2822,-7.2921,-7.2969,-7.3237,-7.312,-7.3128,-7.3203,-7.3193,-7.3297,-7.3308,-7.3322,-7.3522,-7.3558,-7.3666,-7.3481,-7.4029,-7.4044,-7.4057,-7.4167,-7.4193,-7.4217,0,0,0,0,0,-7.267,-7.2847,-7.2827,-7.2867,-7.3077,-7.3244,-7.327,-7.3283,-7.3212,-7.3298,-7.3344,-7.3305,-7.3632,-7.3541,-7.3581,-7.3696,-7.4023,-7.404,-7.4056,-7.4155,-7.4188,-7.4216,0,0,0,0,0,0,-7.2758,-7.286,-7.2839,-7.3053,-7.314,-7.3232,-7.3341,-7.3318,-7.3426,-7.3412,-7.3422,-7.3446,-7.3639,-7.3686,-7.3583,-7.3917,-7.3817,-7.3842,-7.3879,-7.3911,-7.3935,-7.392,-7.3493,0,0,0,0,0,-7.2802,-7.2929,-7.3011,-7.3192,-7.3237,-7.3282,-7.3355,-7.3358,-7.3448,-7.3484,-7.3543,-7.3632,-7.3755,-7.3835,-7.3952,-7.4173,-7.4194,-7.4272,-7.4296,-7.4317,-7.4338,-7.4458,-7.4493,-7.4119,-7.4118,-7.4118,0,0,-7.2894,-7.2966,-7.3046,-7.3212,-7.328,-7.3411,-7.3314,-7.3456,-7.3553,-7.3506,-7.3687,-7.3733,-7.3832,-7.4038,-7.4131,-7.4083,-7.4447,-7.4338,-7.4353,-7.4364,-7.4479,-7.4514,-7.4546,-7.413,-7.4128,-7.4126,0,0,-7.313,-7.3197,-7.3355,-7.3426,-7.353,-7.3558,-7.3596,-7.3693,-7.3722,-7.3904,-7.3871,-7.3986,-7.4197,-7.427,-7.4334,-7.4597,-7.4565,-7.4635,-7.4765,-7.4882,-7.4911,-7.4938,-7.5031,-7.5065,-7.4656,-7.4656,-7.4657,0,-7.3232,-7.3429,-7.3439,-7.3585,-7.3659,-7.3623,-7.3782,-7.3849,-7.3986,-7.4038,-7.3982,-7.4247,-7.4311,-7.4532,-7.4597,-7.465,-7.4693,-7.4623,-7.4906,-7.4933,-7.4957,-7.5047,-7.5082,-7.4664,-7.4663,-7.4662,-7.4662,0,-7.3548,-7.3685,-7.38,-7.3934,-7.4021,-7.4173,-7.4206,-7.4292,-7.4287,-7.4321,-7.4506,-7.4582,-7.4714,-7.4766,-7.4762,-7.4988,-7.4955,-7.4903,-7.4803,-7.5001,-7.5085,-7.5119,-7.4675,-7.4672,-7.467,-7.4668,0,0,-7.3844,-7.3983,-7.4025,-7.4085,-7.4197,-7.4303,-7.4453,-7.4582,-7.4656,-7.4752,-7.4877,-7.5057,-7.501,-7.5083,-7.5087,-7.5189,-7.5392,-7.5125,-7.5127,-7.5172,-7.5645,-7.5683,-7.5722,-7.5372,-7.5378,-7.5384,-7.5636,0,-7.4089,-7.4354,-7.4368,-7.4608,-7.4734,-7.4702,-7.4832,-7.4915,-7.4951,-7.5062,-7.5101,-7.5229,-7.5157,-7.5201,-7.5301,-7.5346,-7.5487,-7.5328,-7.5488,-7.5494,-7.5464,-7.5766,-7.5807,-7.6042,-7.5669,-7.5675,-7.5679,0,-7.441,-7.4517,-7.477,-7.4864,-7.4917,-7.5035,-7.5154,-7.5262,-7.5354,-7.5373,-7.5455,-7.5444,-7.5597,-7.5492,-7.5702,-7.5594,-7.566,-7.5692,-7.5701,-7.5716,-7.5598,-7.5789,-7.6117,-7.6152,-7.5731,-7.5726,-7.5723,0,-7.4601,-7.4807,-7.4985,-7.5037,-7.5152,-7.5235,-7.5286,-7.5373,-7.545,-7.5554,-7.5604,-7.5724,-7.579,-7.5883,-7.5905,-7.5826,-7.6115,-7.6012,-7.6134,-7.6134,-7.6196,-7.6192,-7.6539,-7.624,-7.6239,-7.6238,-7.6238,0,-7.4872,-7.5028,-7.5072,-7.5182,-7.5355,-7.5369,-7.554,-7.5586,-7.5663,-7.578,-7.5759,-7.5869,-7.5891,-7.6005,-7.6023,-7.6194,-7.6224,-7.6243,-7.6246,-7.6245,-7.6243,-7.6288,-7.6272,-7.6248,-7.6246,-7.6244,-7.6242,0,-7.5115,-7.515,-7.5342,-7.5435,-7.5462,-7.5585,-7.5664,-7.5769,-7.5802,-7.5951,-7.5986,-7.6039,-7.6172,-7.6203,-7.6362,-7.6374,-7.6576,-7.6563,-7.6546,-7.6545,-7.6665,-7.6654,-7.7054,-7.7107,-7.6773,-7.6776,-7.6778,0,-7.5286,-7.5405,-7.5511,-7.5588,-7.5643,-7.5768,-7.5847,-7.5865,-7.5947,-7.6062,-7.6153,-7.6284,-7.639,-7.6605,-7.6657,-7.6778,-7.6768,-7.69,-7.6786,-7.6781,-7.677,-7.6762,-7.6774,-7.6921,-7.6925,-7.6928,-7.693,0,-7.5585,-7.5597,-7.5711,-7.5833,-7.5927,-7.6023,-7.6114,-7.6179,-7.6209,-7.6303,-7.644,-7.6522,-7.6685,-7.6816,-7.6937,-7.6989,-7.6965,-7.6966,-7.7,-7.7001,-7.6985,-7.6995,-7.6605,-7.6956,-7.6954,-7.6952,-7.695,-7.6949,-7.5797,-7.5902,-7.5992,-7.612,-7.6191,-7.6277,-7.638,-7.6427,-7.6541,-7.6676,-7.6679,-7.6828,-7.6917,-7.7079,-7.7138,-7.7254,-7.7213,-7.7264,-7.7276,-7.7289,-7.7299,-7.6967,-7.7276,-7.7275,-7.7275,-7.7274,-7.7274,0,-7.6096,-7.6152,-7.627,-7.6399,-7.65,-7.6469,-7.6569,-7.6655,-7.6786,-7.6872,-7.6977,-7.7134,-7.7261,-7.7322,-7.7448,-7.7529,-7.7521,-7.7561,-7.7555,-7.7567,-7.7329,-7.7286,-7.7565,-7.7565,-7.7565,-7.7565,-7.7565,-7.7565,-7.6263,-7.6438,-7.646,-7.667,-7.6725,-7.6872,-7.6931,-7.701,-7.7079,-7.7255,-7.7361,-7.74,-7.7476,-7.7607,-7.7721,-7.7736,-7.7783,-7.7828,-7.7838,-7.7614,-7.7584,-7.7556,-7.7516,-7.7839,-7.7839,-7.8067,-7.8069,-7.807]}]]